Weather in Aliya

Russia / Zabaykalsky Krai     52°18′57″N   117°37′03″E
temp.,
°C
wind,
m/s
gust,
m/s
humid.,
%
clouds,
%
prec.,
mm/h
press.,
hPa
HPBL,
m
17 april, sat
sat1700:00+1ssw22265 0.0 101412
03:00−1sw223019 0.0 101418
06:00−2s22375 0.0 101318
09:00+4wsw47364 0.0 1012654
12:00+10wsw68315 0.0 10091180
15:00+14wsw792340 0.0 10051760
18:00+15wsw710195 0.0 10032269
21:00+9ssw333082 0.0 100431
18 april, sun
sun1800:00+6s22375 0.0 100428
03:00+4sse124512 0.0 100421
06:00+2sse11505 0.0 100410
09:00+8wsw123461 0.0 1004275
12:00+14wnw4627100 0.0 10021341
15:00+16w5825100 0.0 10012891
18:00+13nw682674 0.0 10032349
21:00+7n71036100 0.0 1009849
19 april, mon
mon1900:00+2nnw364883 0.0 1015705
03:00−2ne476735 0.2 1020537
06:00−5ne116545 0.0 102210
09:00−2ne234883 0.0 10241234
12:00+2nnw23240 0.0 10231846
15:00+5wnw34120 0.0 10202060
18:00+5w22100 0.0 10191830
21:00+1ssw11156 0.0 102010
20 april, tue
tue2000:000ese2219100 0.0 101929
03:00−1ese232772 0.0 101543
06:00−3ese22356 0.0 101415
09:00+5s262487 0.0 1011397
12:00+11w4524100 0.0 10091046
15:00+14wnw562596 0.0 10071636
18:00+13nw3420100 0.0 10081487
21:00+7n2232100 0.0 101121
21 april, wed
wed2100:00+6nne0133100 0.0 101210
03:00+6ne1135100 0.0 101210
06:00+4ne1138100 0.0 101213
09:00+7ene2333100 0.0 1011315
12:00+11e4433100 0.0 10101014
15:00+12e3342100 0.0 10071387
18:00+10ene5567100 0.2 1007635
21:00+7ene4875100 0.2 1008449